SCP
0 0 0 0 0 -0 -0 -0 -0 -0 -0 -0 -0 -0 -0 0 0 0 0 0 0 0 0 0 0 0 0 0 0 0 0 0 0 0 0 0 0 0 0 0 0 0 0 0 0 0 0 0 0
0 0 0 0 0 -0 -0 -0 -0 -0 -0 -0 -0 -0 -0 0 0 0 0 0 0 0 0 0 0 0 0 0 0 0 0 0 0 0 0 0 0 0 0 0 0 0 0 0 0 0 0 0 0
0 0 0 0 0 -0 -0 -0 -0 -0 -0 -0 -0 0 0 0 0 0 0 0 0 0 0 0 0 0 0 0 0 0 0 0 0 0 0 0 0 0 0 0 0 0 0 0 0 0 0 0 0
0 0 0 0 0 0 0 0 -0 -0 -0 -0 0 0 0 0 0 0 0 0 0 0 0 0 0 0 0 0 0 0 0 0 0 0 0 0 0 0 0 0 0 0 0 0 0 0 0 0 0
0 0 0 0 0 0 0 0 -0 -0 -0 0 0 0 0 0 0 0 0 0 0 0 0 0 0 0 0 0 0 0 0 0 0 0 0 0 0 0 0 0 0 0 0 0 0 0 0 0 0
0 0 0 0 0 0 0 0 -0 -0 -0 0 0 0 0 0 0 0 0 0 0 0 0 0 0 0 0 0 0 0 0 0 0 0 0 0 0 0 0 0 0 0 0 0 0 0 0 0 0
0 0 0 0 0 0 0 0 0 -0 0 0 0 0 0 0 0 0 0 0 0 0 0 0 0 0 0 0 0 0 0 0 0 0 0 0 0 0 0 0 0 0 0 0 0 0 0 0 0
0 0 0 0 0 0 0 0 0 0 0 0 0 0 0 0 0 0 0 0 0 0 0 0 0 0 0 0 0 0 0 0 0 0 0 0 0 0 0 0 0 0 0 0 0 0 0 0 0
0 0 0 0 0 0 0 0 0 0 0 0 0 0 0 0 0 0 0 0 0 0 0 0 0 0 0 0 0 0 0 0 0 0 0 0 0 0 0 0 0 0 0 0 0 0 0 0 0
0 0 0 0 0 0 0 0 0 -0 0 0 0 0 0 0 0 0 0 0 0 0 0 0 0 0 0 0 0 0 0 0 0 0 0 0 0 0 0 0 0 0 0 0 0 0 0 0 0
0 0 0 0 0 0 0 0 0 -0 -0 0 0 0 0 0 0 0 0 0 0 0 0 0 0 0 0 0 0 0 0 0 0 0 0 0 0 0 0 0 0 0 0 0 0 0 -0 -0 0
0 0 0 0 0 0 0 0 0 0 -0 -0 0 0 0 0 0 0 0 0 0 0 0 0 0 0 0 0 0 0 0 0 0 0 0 0 0 0 0 0 0 0 0 0 0 0 0 0 0
0 0 0 0 0 0 0 0 0 0 0 0 0 0 0 0 0 0 0 0 0 0 0 0 0 0 0 0 0 0 0 0 0 0 0 0 0 0 0 0 0 0 0 0 0 0 0 0 0
0 0 0 0 0 0 0 0 0 0 0 0 0 0 0 0 0 0 0 0 0 0 0 0 0 0 0 0 0 0 0 0 0 0 0 0 0 0 0 0 0 0 0 0 0 0 0 0 0
0 0 0 0 0 0 0 0 0 0 0 0 0 0 0 0 0 0 0 0 0 0 0 0 0 0 0 0 0 0 0 0 0 0 0 0 0 0 0 0 0 0 0 0 0 0 0 0 0
0 0 0 0 0 0 0 0 0 0 0 0 0 0 0 0 0 0 0 0 0 0 0 0 0 0 0 0 0 0 0 0 0 0 0 0 0 0 0 0 0 0 0 0 0 0 0 0 0
0 0 0 0 0 0 0 0 0 0 0 0 0 0 0 0 0 0 0 0 0 0 0 1 1 1 1 1 1 0 0 0 0 0 0 0 0 0 0 0 0 0 0 0 0 0 0 0 0
0 0 0 0 0 0 0 0 0 0 0 0 0 0 0 0 0 0 0 0 0 0 0 1 1 1 1 1 1 1 1 1 0 0 0 0 0 0 0 0 0 0 0 0 0 0 0 0 0
0 0 0 0 0 0 0 0 0 0 0 0 0 0 0 0 0 0 0 0 0 0 1 1 1 1 1 1 1 1 1 1 1 1 1 0 0 0 0 0 0 0 0 0 0 0 0 0 0
0 0 0 0 0 0 0 0 0 0 0 0 0 0 0 0 0 0 0 0 0 1 1 1 1 1 1 1 1 1 1 1 1 1 1 1 1 0 0 0 0 0 0 0 0 0 0 0 0
0 0 0 0 0 0 0 0 0 0 0 0 0 0 0 0 0 0 0 0 1 1 1 1 1 1 1 1 1 1 1 1 1 1 1 1 1 0 0 0 0 0 -0 0 0 0 0 0 0
0 0 0 0 0 0 0 0 0 0 0 0 0 0 0 0 0 0 0 0 1 1 1 1 1 1 1 1 1 1 1 1 1 1 1 1 1 0 0 0 0 0 0 0 0 0 0 0 0
0 0 0 0 0 0 0 0 0 0 0 0 0 0 0 0 0 0 0 0 1 1 1 1 1 1 1 1 1 1 1 1 1 1 1 1 0 0 0 0 0 0 0 0 0 0 0 0 0
0 0 0 0 0 0 0 0 0 0 0 0 0 0 0 0 0 0 0 0 0 1 1 1 1 1 1 1 1 1 1 1 1 1 0 0 0 0 0 0 0 0 0 0 0 0 0 0 0
0 0 0 0 0 0 0 0 0 0 0 0 0 0 0 0 0 0 0 0 0 0 0 0 0 1 1 1 1 1 1 1 0 0 0 0 0 0 0 0 0 0 0 0 0 0 0 0 1
0 0 0 0 0 0 0 0 0 0 0 0 0 0 0 0 0 0 0 0 0 0 0 0 1 1 1 1 1 1 1 0 0 0 0 0 0 0 0 0 0 0 0 0 0 0 0 0 1
0 0 0 0 0 0 0 0 0 0 0 0 0 0 0 0 0 0 0 0 0 0 1 1 1 1 1 1 1 1 0 0 0 0 0 0 0 0 0 0 0 0 0 0 0 0 0 0 0
0 0 0 0 0 0 0 0 0 0 0 0 0 0 0 0 0 0 0 0 1 1 1 1 1 1 1 1 1 0 0 0 0 0 0 0 0 0 0 0 0 0 0 0 0 0 0 0 0
0 0 0 0 0 0 0 0 0 0 0 0 0 0 0 0 0 0 0 0 1 1 1 1 1 1 1 1 1 0 0 0 0 0 0 0 0 0 0 0 0 0 0 0 0 0 0 0 0
0 0 0 0 0 0 0 0 0 0 0 0 0 0 0 0 0 0 0 0 1 1 1 1 1 1 1 1 1 1 0 0 0 0 0 0 0 0 0 0 0 0 0 0 0 0 0 0 0
Wind_Speed
6 4 4 4 4 3 7 4 1 2 4 5 4 3 6 8 7 4 7 6 9 13 13 14 13 14 14 14 15 14 14 13 11 9 9 8 7 8 9 8 9 9 8 7 8 6 8 7 5
6 3 4 4 2 6 7 3 2 3 5 3 3 1 2 7 7 7 9 7 10 12 11 13 12 12 13 13 14 14 14 13 12 10 9 8 7 8 9 9 10 10 10 8 8 5 8 9 8
5 3 3 2 1 6 7 4 3 4 3 1 1 2 4 5 5 7 8 10 11 11 10 12 12 11 11 12 13 13 13 13 12 10 9 8 8 8 9 9 10 10 9 8 8 6 8 8 9
3 4 3 3 6 5 5 5 3 5 3 0 1 4 5 5 5 7 11 11 11 10 9 12 10 11 10 10 11 12 13 13 13 11 9 8 8 8 8 9 9 9 9 8 7 7 6 6 8
3 4 4 4 5 5 3 3 1 3 1 2 1 4 6 7 8 11 11 10 10 10 9 11 9 10 10 10 11 12 13 13 12 11 9 8 8 8 8 8 9 9 8 9 6 4 4 6 7
3 4 4 4 5 4 4 2 2 2 2 3 2 4 7 9 10 11 10 9 9 9 9 10 10 10 10 10 11 12 11 11 11 11 10 8 8 8 9 9 9 8 7 8 7 5 9 8 6
3 4 1 3 5 5 3 1 1 1 2 2 1 2 7 10 11 11 10 10 8 8 8 9 9 10 10 10 11 12 12 12 11 11 9 8 8 9 9 10 9 8 8 8 8 9 10 8 7
3 4 3 5 6 4 4 2 1 2 2 2 3 1 7 12 13 11 10 10 9 9 8 9 10 10 10 9 11 11 12 12 11 11 10 8 9 10 11 10 9 9 9 8 9 9 9 8 7
3 6 4 4 6 4 4 2 2 1 1 3 4 2 6 15 15 12 11 10 10 9 8 8 9 9 9 10 11 11 11 11 11 10 10 9 8 9 9 10 10 11 10 9 10 10 9 7 7
4 5 3 1 3 3 3 2 1 2 1 3 6 6 10 16 16 15 14 13 12 11 9 8 8 9 9 7 9 8 9 9 8 7 8 6 6 5 8 12 10 11 11 10 10 7 6 5 3
4 5 1 2 2 1 0 0 1 2 1 2 5 10 13 16 16 15 14 13 12 10 9 8 8 8 8 6 6 6 6 5 6 7 7 5 6 6 7 8 8 9 9 8 8 7 3 2 3
6 4 3 0 2 3 2 2 4 5 2 1 1 7 14 16 16 15 13 11 11 11 10 10 9 8 8 6 5 4 5 6 5 6 7 5 4 6 6 5 6 5 4 4 3 3 4 4 5
7 4 3 4 4 4 4 7 6 9 8 6 5 8 13 15 15 14 12 11 11 11 11 11 10 9 8 7 6 6 6 6 5 5 7 7 5 6 7 6 5 4 3 4 5 5 5 5 7
3 5 6 6 8 7 8 8 7 10 5 8 9 11 13 13 13 12 12 11 12 12 12 11 10 9 9 8 7 6 6 6 6 6 7 7 6 6 7 8 7 7 5 4 5 6 6 5 6
5 8 8 10 9 6 6 11 11 10 6 9 11 11 12 12 11 11 11 11 11 10 11 11 10 10 10 10 9 7 5 6 6 7 8 8 7 7 7 8 8 7 6 5 4 6 5 5 6
6 8 8 4 7 5 6 9 3 1 8 11 12 11 10 11 12 11 9 9 9 9 9 10 9 11 11 10 9 7 7 6 5 5 6 8 9 9 8 8 8 7 6 6 6 5 5 6 5
6 8 4 2 1 1 5 7 2 1 4 9 11 12 11 12 11 9 9 9 9 10 10 10 10 10 10 10 8 7 7 7 5 5 5 7 9 9 8 7 8 9 7 7 8 7 6 5 5
6 7 6 4 2 6 8 9 9 3 5 8 11 11 9 10 9 7 8 7 8 9 9 8 7 8 8 8 6 4 4 5 6 7 8 9 8 10 8 7 9 9 7 6 7 8 7 6 5
7 9 10 7 5 7 9 10 9 7 5 8 11 13 9 7 6 5 4 5 6 7 7 7 7 6 6 5 7 6 6 4 6 7 10 10 9 7 4 6 9 9 8 9 7 6 7 7 6
7 9 12 11 4 7 11 12 9 10 9 9 11 11 11 8 8 8 6 4 5 5 6 7 8 9 8 7 7 5 5 6 8 8 8 8 7 5 3 7 7 10 10 8 7 8 6 6 7
10 10 10 10 13 13 10 14 11 8 7 9 10 9 9 10 10 9 7 5 5 5 6 6 9 10 10 8 6 5 5 4 7 8 8 10 11 8 5 6 6 8 10 9 10 9 11 9 9
11 6 7 10 10 9 7 13 10 9 11 11 10 8 8 8 10 10 7 6 6 6 6 7 7 8 9 9 8 8 6 6 7 6 7 10 13 12 10 11 11 10 10 10 9 12 11 11 9
11 5 2 6 7 13 15 12 12 5 10 9 8 7 7 9 11 10 8 6 7 7 6 6 7 7 7 8 7 7 6 5 3 3 5 7 9 12 13 13 10 11 11 11 10 10 11 11 10
6 6 4 2 2 12 12 11 10 3 3 4 4 4 7 11 12 10 8 7 7 7 6 6 6 7 7 7 7 7 6 5 4 4 4 3 4 7 12 13 11 8 10 11 8 9 11 10 12
8 6 3 4 6 8 1 6 8 5 6 9 10 5 5 10 12 11 10 8 7 7 7 7 6 7 7 7 7 7 6 6 6 5 4 4 4 4 8 10 11 11 11 8 5 4 6 11 11
10 13 10 7 6 5 5 7 2 4 6 6 5 1 6 9 9 9 9 8 7 8 8 7 7 7 7 7 6 7 7 4 4 4 4 4 4 4 7 8 10 10 8 9 10 9 4 9 10
5 9 10 12 7 6 9 7 10 2 1 3 5 4 4 6 7 8 8 8 8 9 9 9 8 8 7 7 6 6 5 5 5 5 5 5 5 3 6 8 8 8 8 9 10 11 9 6 9
4 1 6 8 8 10 7 5 8 1 2 1 2 4 3 1 4 6 7 8 9 10 10 10 10 9 8 7 6 4 4 5 5 5 5 5 5 5 4 3 4 6 8 9 9 9 9 6 3
6 6 7 8 5 7 6 1 1 2 3 2 1 4 6 6 7 6 6 8 10 10 10 11 11 11 10 9 7 6 5 5 5 5 5 6 5 6 7 8 8 8 9 8 6 7 9 6 4
4 8 9 7 8 5 4 7 3 2 2 2 4 5 7 8 8 7 6 7 10 11 11 12 12 12 10 9 8 7 6 6 6 6 6 7 7 6 6 5 6 6 7 8 8 7 8 6 4
Wind_Direction
259 256 251 232 218 117 84 83 24 60 56 60 59 44 55 38 15 49 116 135 141 143 146 155 159 152 149 151 155 160 152 152 150 150 141 142 142 142 137 122 105 103 102 95 87 99 112 106 100
305 286 242 243 204 101 81 66 60 55 88 94 85 56 62 66 53 105 133 132 141 140 150 149 157 154 151 155 158 161 157 159 156 153 148 151 146 136 131 116 106 100 100 100 92 79 81 86 87
261 258 259 222 90 69 77 60 56 111 115 334 84 58 36 62 81 112 114 134 137 137 147 134 153 151 154 155 160 160 158 160 154 150 157 157 150 140 130 119 110 105 102 100 93 80 88 86 80
258 225 215 213 111 93 74 71 89 143 165 129 312 90 86 53 78 106 124 132 131 135 142 127 155 153 158 155 157 154 155 157 151 155 159 152 146 135 134 126 113 105 103 102 96 91 102 101 89
243 247 208 166 119 121 117 81 108 163 136 120 332 94 101 89 94 117 129 133 133 137 137 134 156 155 158 155 152 153 158 155 152 155 152 150 148 137 128 125 113 108 110 114 114 117 124 119 95
276 266 220 170 133 132 130 142 188 203 160 143 179 126 101 115 131 128 134 133 128 133 140 135 147 152 155 152 149 151 155 153 150 151 145 143 139 131 120 116 113 112 117 123 119 113 118 114 93
304 281 244 156 154 156 126 215 235 314 193 175 195 140 121 141 139 140 135 127 128 137 146 140 150 150 156 152 152 156 154 151 147 142 139 136 132 125 115 113 117 122 130 126 111 111 117 107 87
311 277 202 199 207 165 135 167 62 332 31 154 220 179 126 139 146 146 141 141 142 152 160 156 155 160 158 157 159 161 157 150 144 139 136 134 134 133 128 128 123 129 135 128 121 116 112 98 83
270 259 248 230 226 159 130 130 115 324 275 195 199 61 98 137 153 159 158 161 161 164 170 167 157 157 159 166 158 163 155 149 147 143 141 157 152 157 149 109 121 129 124 123 123 117 113 123 111
260 267 299 304 213 148 114 39 98 240 261 189 188 143 138 154 169 178 178 174 172 171 173 172 161 161 162 174 156 168 160 165 156 154 153 165 147 125 113 117 132 126 117 119 118 126 166 196 133
248 274 307 184 180 255 294 18 254 254 227 180 184 162 164 175 185 191 189 179 172 167 164 172 170 169 170 169 157 176 157 171 162 163 161 169 145 146 141 139 154 144 153 144 150 175 167 76 85
258 254 274 202 171 201 222 269 249 241 266 330 204 158 174 190 196 197 193 182 170 166 167 168 178 172 175 165 175 173 159 177 173 171 164 172 169 165 150 166 151 147 152 146 139 117 96 79 76
251 272 250 232 215 232 242 243 261 255 241 229 211 181 186 199 202 197 193 182 176 173 174 172 179 178 170 178 174 170 171 180 166 185 180 183 181 179 162 166 157 148 169 148 145 142 120 94 70
305 282 259 242 231 232 246 250 241 245 218 208 204 193 191 200 202 195 192 190 190 182 181 173 177 178 171 177 177 182 176 182 169 192 194 194 182 183 183 163 159 168 174 161 147 127 124 117 99
271 270 246 230 231 232 248 246 227 246 204 211 207 198 196 203 202 203 195 195 195 188 184 176 178 178 174 178 181 181 185 181 191 195 196 198 183 188 189 164 178 167 157 150 137 140 134 122 115
253 249 251 197 218 190 229 257 107 310 212 217 211 203 203 208 209 207 205 201 191 190 191 185 183 185 180 180 182 175 181 181 207 211 201 201 195 189 190 175 182 173 166 155 154 163 153 142 138
224 260 260 199 136 179 235 269 136 279 244 235 220 213 206 209 203 206 212 210 199 195 197 199 195 192 187 183 184 175 180 176 188 229 228 212 209 196 185 193 184 178 179 172 162 171 164 153 155
274 271 265 266 10 309 281 276 282 265 254 249 232 224 212 207 193 195 216 225 219 213 210 207 197 201 191 185 177 173 189 185 192 199 214 213 214 214 200 199 199 187 183 186 176 169 171 168 172
304 298 287 293 345 319 292 294 289 272 254 261 244 227 210 201 173 182 185 208 211 209 214 196 174 179 162 170 177 182 199 195 225 206 208 206 205 212 221 229 210 198 189 198 197 182 185 178 173
292 295 294 299 301 310 299 290 283 269 265 266 261 246 211 184 181 178 168 171 187 178 184 182 169 168 171 182 191 192 171 195 212 222 206 195 179 179 208 249 238 205 200 203 208 196 182 187 192
257 248 252 271 305 290 294 277 254 255 256 255 253 252 219 189 191 179 173 158 161 168 172 182 172 179 184 181 168 163 157 194 208 209 200 191 187 166 151 240 253 254 231 201 211 203 193 190 203
275 283 274 280 302 301 322 297 288 285 273 257 243 225 202 187 190 176 170 158 160 156 169 180 173 179 181 177 179 195 196 213 223 205 191 195 197 189 191 213 225 232 253 231 210 213 205 203 195
230 186 237 304 321 296 279 275 277 262 271 260 246 241 214 194 188 175 165 155 144 143 155 163 163 175 178 187 200 222 227 226 229 235 201 203 202 204 214 218 222 226 240 241 227 217 215 210 203
206 183 173 207 244 268 248 251 269 255 294 319 303 297 218 191 180 166 152 158 149 141 141 149 163 164 171 193 203 225 227 214 209 201 200 198 222 221 222 217 220 227 241 241 239 217 222 220 218
217 215 229 224 199 241 200 244 264 338 336 317 311 307 190 178 173 168 169 174 166 162 157 160 163 155 168 184 191 208 212 217 215 214 209 199 209 240 247 228 216 214 219 204 164 170 222 227 226
219 245 252 241 225 215 177 243 290 354 311 320 340 94 149 168 177 184 189 185 183 180 175 172 165 158 164 184 192 192 192 210 239 233 206 229 219 217 235 236 232 226 203 173 159 138 181 236 221
197 224 260 276 256 253 242 250 296 358 19 26 53 90 135 174 198 208 211 204 194 193 187 182 176 170 173 186 192 201 201 211 226 227 206 203 210 213 247 234 219 202 182 173 166 144 148 214 222
290 289 241 230 257 260 247 238 249 74 6 312 70 62 52 325 254 237 224 220 210 201 193 186 183 176 181 189 194 205 222 211 229 230 191 201 195 186 213 199 206 196 180 181 168 143 141 160 160
305 271 290 317 312 288 278 238 323 345 2 350 72 41 26 13 352 315 259 226 217 207 198 193 189 183 186 189 185 190 212 223 216 222 199 195 189 182 194 212 204 199 188 180 161 154 148 153 134
285 325 327 288 265 263 276 263 198 254 273 137 95 35 357 340 324 310 275 239 217 210 206 200 199 189 188 187 181 193 202 212 218 211 202 191 193 197 210 210 203 200 176 171 166 163 154 160 159